Showing default

TANSUO 1, 28220

Orbit data source: Space-Track

TANSUO 1, 28220 is a payload satellite owned by CASC (CN) in SSO that was launched on Sun, 18 Apr 2004 UTC via a CHANG ZHENG 2C launch vehicle from the Xichang Space Center, China (XSC). Payload-class satellites include a variety of spacecraft equipped with specific instruments for various scientific and technological missions. These include communications satellites like Starlink; space stations such as the ISS; scientific satellites like the Hubble; Earth observation satellites from companies like Planet Labs, Umbra, and HawkEye 360; GPS; miniature CubeSats for education and research; and military/defense satellites.

Loading next visibility...
Identifier
28220, 2004-012A
Orbit
SSO
Country
Flag of CNCN / PRC
Related business
Manufacturer
DFH/HARB
Mission
Operational Civil Imaging
Bus & Motor
SY, Unknown motor
Mass
204 kg wet, 204 kg dry
Launch date (UTC)
2004-04-18 (22 years ago)
Launch vehicle
CHANG ZHENG 2C
Launch site
Xichang Space Center, China (XSC)
Object type
Payload
Rocket body
Debris
Shape & HBR
Box + 1 Pan, 1.5 m
Radar Cross Section
2.043 m², Large (>1 m²)

Expand to show TLE details & history
Last TLE update: 20 hours ago

TLE from 20 hours ago
0 TANSUO 1
1 28220U 04012A   26171.18463165  .00011063  00000-0  34057-3 0  9995
2 28220  97.8685 249.4480 0005306  22.5113 337.6360 15.33824479211556
Epoch: 2026-06-20T04:25Z
TLE epoch observation values (Epoch: 2026-06-20T04:25:52.174Z)
Latitude
-0.00004°
Longitude
-85.42228°
Altitude
464.152 km
Speed
7.636 km/s
True Right ascension
16h 37m 47s
True Declination
0° 00' 00"
Sunlit
Object was in full shadow at epoch
Visualization orbit readout
Latitude
Unknown
Longitude
Unknown
Altitude
Unknown
Speed
Unknown
Apparent Right ascension
Unknown
Apparent Declination
Unknown
Sunlit
N/A
Visualization observer readout
Local Sidereal Time
11:01:34
Azimuth
Unknown
Elevation
Unknown
Doppler factor
Unknown
Orbital elements
Apogee altitude
465.011 km
Perigee altitude
457.753 km
Semi-major axis
6,839.519 km
Eccentricity
0.00053
Inclination
97.8685°
RAAN
249.448°
Arg. of periapsis
22.5113°
True anomaly
337.61285°
Mean anomaly
337.636°
Eccentric anomaly
337.62443°
Mean motion
3.83711 °/min
Orbital period
93.82 mins
BSTAR
0.00034057
Loading maneuver chart data...
Computing Atmospheric mass density...
Loading historical data...
Loading historical data...
Loading historical data...
Loading historical data...
Loading historical data...
Loading historical data...
Loading historical data...

Documentation

Showing up to 5 results
|